• In Schweiz
  • Länderverzeichnis
  • Für 7 Tage
  • Wassertemperatur
  • Satellitenkarten
  • Wetterkarte
  • Widgets
  • user-avatar
    Anmelden

    Stündliche Wetter Gaborone

    Heute, 15 November, Donnerstag

    Zeit Temperatur Niederschläge Wind Luftdruck Luftfeuchtigkeit
    00:00 +29°C° 0 mm 2 m/S 677 mmHg 25%
    01:00 +28°C° 0 mm 3 m/S 677 mmHg 27%
    02:00 +27°C° 0 mm 3 m/S 677 mmHg 30%
    03:00 +26°C° 0 mm 3 m/S 677 mmHg 32%
    04:00 +26°C° 0 mm 3 m/S 677 mmHg 34%
    05:00 +25°C° 0 mm 2 m/S 677 mmHg 36%
    06:00 +26°C° 0 mm 3 m/S 678 mmHg 33%
    07:00 +27°C° 0 mm 4 m/S 678 mmHg 30%
    08:00 +28°C° 0 mm 4 m/S 679 mmHg 28%
    09:00 +30°C° 0 mm 4 m/S 679 mmHg 25%
    10:00 +33°C° 0 mm 4 m/S 679 mmHg 22%
    11:00 +35°C° 0 mm 3 m/S 679 mmHg 19%
    12:00 +37°C° 0 mm 3 m/S 679 mmHg 17%
    13:00 +38°C° 0 mm 3 m/S 679 mmHg 15%
    14:00 +40°C° 0 mm 2 m/S 678 mmHg 13%
    15:00 +40°C° 0 mm 2 m/S 678 mmHg 12%
    16:00 +40°C° 0 mm 2 m/S 677 mmHg 12%
    17:00 +40°C° 0 mm 2 m/S 677 mmHg 11%
    18:00 +38°C° 0 mm 2 m/S 677 mmHg 13%
    19:00 +36°C° 0 mm 2 m/S 677 mmHg 14%
    20:00 +34°C° 0 mm 2 m/S 677 mmHg 16%
    21:00 +34°C° 0 mm 2 m/S 677 mmHg 18%
    22:00 +32°C° 0 mm 2 m/S 678 mmHg 19%
    23:00 +31°C° 0 mm 2 m/S 678 mmHg 21%

    Morgen, 16 November, Freitag

    Zeit Temperatur Niederschläge Wind Luftdruck Luftfeuchtigkeit
    00:00 +30°C° 0 mm 3 m/S 678 mmHg 22%
    01:00 +30°C° 0 mm 3 m/S 678 mmHg 22%
    02:00 +29°C° 0 mm 4 m/S 677 mmHg 23%
    03:00 +28°C° 0 mm 3 m/S 677 mmHg 25%
    04:00 +27°C° 0 mm 2 m/S 677 mmHg 27%
    05:00 +26°C° 0 mm 1 m/S 677 mmHg 29%
    06:00 +27°C° 0 mm 2 m/S 678 mmHg 28%
    07:00 +29°C° 0 mm 2 m/S 679 mmHg 26%
    08:00 +30°C° 0 mm 3 m/S 680 mmHg 25%
    09:00 +33°C° 0 mm 3 m/S 680 mmHg 23%
    10:00 +35°C° 0 mm 3 m/S 680 mmHg 20%
    11:00 +37°C° 0 mm 3 m/S 680 mmHg 18%
    12:00 +38°C° 0 mm 3 m/S 680 mmHg 16%
    13:00 +39°C° 0 mm 3 m/S 679 mmHg 14%
    14:00 +40°C° 0 mm 3 m/S 679 mmHg 13%
    15:00 +40°C° 0 mm 3 m/S 678 mmHg 13%
    16:00 +40°C° 0 mm 3 m/S 678 mmHg 12%
    17:00 +40°C° 0 mm 3 m/S 677 mmHg 12%
    18:00 +38°C° 0 mm 3 m/S 677 mmHg 14%
    19:00 +37°C° 0 mm 3 m/S 677 mmHg 16%
    20:00 +35°C° 0 mm 3 m/S 677 mmHg 18%
    21:00 +34°C° 0 mm 3 m/S 678 mmHg 19%
    22:00 +33°C° 0 mm 3 m/S 678 mmHg 20%
    23:00 +31°C° 0 mm 3 m/S 678 mmHg 21%

    übermorgen, 17 November, Samstag

    Zeit Temperatur Niederschläge Wind Luftdruck Luftfeuchtigkeit
    00:00 +30°C° 0.1 mm 3 m/S 678 mmHg 23%
    01:00 +29°C° 0.1 mm 3 m/S 678 mmHg 26%
    02:00 +28°C° 0.1 mm 2 m/S 677 mmHg 28%
    03:00 +28°C° 0 mm 2 m/S 678 mmHg 30%
    04:00 +27°C° 0 mm 2 m/S 678 mmHg 32%
    05:00 +26°C° 0 mm 2 m/S 678 mmHg 34%
    06:00 +27°C° 0 mm 3 m/S 678 mmHg 32%
    07:00 +29°C° 0 mm 3 m/S 679 mmHg 30%
    08:00 +30°C° 0 mm 3 m/S 680 mmHg 27%
    09:00 +33°C° 0 mm 3 m/S 680 mmHg 24%
    10:00 +35°C° 0 mm 3 m/S 680 mmHg 22%
    11:00 +37°C° 0 mm 3 m/S 680 mmHg 19%
    12:00 +38°C° 0 mm 2 m/S 679 mmHg 17%
    13:00 +39°C° 0 mm 2 m/S 678 mmHg 14%
    14:00 +41°C° 0 mm 1 m/S 678 mmHg 12%
    15:00 +41°C° 0 mm 1 m/S 677 mmHg 12%
    16:00 +41°C° 0 mm 1 m/S 676 mmHg 11%
    17:00 +40°C° 0 mm 1 m/S 676 mmHg 10%
    18:00 +39°C° 0 mm 1 m/S 676 mmHg 12%
    19:00 +37°C° 0 mm 1 m/S 676 mmHg 13%
    20:00 +36°C° 0 mm 2 m/S 676 mmHg 14%
    21:00 +35°C° 0 mm 2 m/S 676 mmHg 15%
    22:00 +34°C° 0 mm 3 m/S 676 mmHg 17%
    23:00 +33°C° 0 mm 4 m/S 676 mmHg 19%

    18 November, Sonntag

    Zeit Temperatur Niederschläge Wind Luftdruck Luftfeuchtigkeit
    00:00 +31°C° 0 mm 3 m/S 676 mmHg 21%
    01:00 +30°C° 0 mm 3 m/S 676 mmHg 23%
    02:00 +29°C° 0 mm 3 m/S 675 mmHg 25%
    03:00 +29°C° 0 mm 2 m/S 676 mmHg 26%
    04:00 +28°C° 0 mm 2 m/S 676 mmHg 28%
    05:00 +27°C° 0 mm 2 m/S 676 mmHg 29%
    06:00 +29°C° 0 mm 3 m/S 677 mmHg 27%
    07:00 +30°C° 0 mm 4 m/S 678 mmHg 25%
    08:00 +33°C° 0 mm 6 m/S 679 mmHg 23%
    09:00 +35°C° 0 mm 5 m/S 679 mmHg 21%
    10:00 +37°C° 0 mm 5 m/S 679 mmHg 19%
    11:00 +40°C° 0 mm 5 m/S 679 mmHg 16%
    12:00 +40°C° 0 mm 5 m/S 678 mmHg 15%
    13:00 +41°C° 0 mm 4 m/S 677 mmHg 13%
    14:00 +42°C° 0 mm 3 m/S 676 mmHg 12%
    15:00 +42°C° 0 mm 3 m/S 676 mmHg 11%
    16:00 +42°C° 0 mm 3 m/S 675 mmHg 11%
    17:00 +42°C° 0 mm 3 m/S 675 mmHg 10%
    18:00 +39°C° 0 mm 3 m/S 675 mmHg 12%
    19:00 +38°C° 0 mm 3 m/S 676 mmHg 14%
    20:00 +37°C° 0 mm 3 m/S 676 mmHg 15%
    21:00 +36°C° 0.2 mm 4 m/S 676 mmHg 18%
    22:00 +35°C° 0.2 mm 4 m/S 677 mmHg 21%
    23:00 +34°C° 0.2 mm 5 m/S 677 mmHg 23%

    19 November, Montag

    Zeit Temperatur Niederschläge Wind Luftdruck Luftfeuchtigkeit
    00:00 +32°C° 0 mm 6 m/S 677 mmHg 29%
    01:00 +30°C° 0 mm 7 m/S 676 mmHg 34%
    02:00 +29°C° 0 mm 8 m/S 676 mmHg 39%
    03:00 +29°C° 0 mm 7 m/S 676 mmHg 42%
    04:00 +28°C° 0 mm 6 m/S 676 mmHg 45%
    05:00 +27°C° 0 mm 5 m/S 676 mmHg 47%
    06:00 +28°C° 0 mm 6 m/S 677 mmHg 44%
    07:00 +29°C° 0 mm 7 m/S 678 mmHg 40%
    08:00 +31°C° 0 mm 8 m/S 678 mmHg 36%
    09:00 +33°C° 0 mm 8 m/S 678 mmHg 34%
    10:00 +34°C° 0 mm 8 m/S 678 mmHg 31%
    11:00 +37°C° 0 mm 8 m/S 678 mmHg 29%
    12:00 +38°C° 0 mm 8 m/S 678 mmHg 26%
    13:00 +39°C° 0 mm 7 m/S 677 mmHg 24%
    14:00 +40°C° 0 mm 7 m/S 676 mmHg 21%
    15:00 +40°C° 0 mm 7 m/S 676 mmHg 21%
    16:00 +40°C° 0 mm 6 m/S 675 mmHg 20%
    17:00 +40°C° 0 mm 6 m/S 675 mmHg 20%
    18:00 +38°C° 0 mm 6 m/S 675 mmHg 22%
    19:00 +36°C° 0 mm 5 m/S 675 mmHg 25%
    20:00 +35°C° 0 mm 5 m/S 675 mmHg 27%
    21:00 +34°C° 0 mm 6 m/S 675 mmHg 29%
    22:00 +33°C° 0 mm 6 m/S 675 mmHg 31%
    23:00 +32°C° 0 mm 6 m/S 675 mmHg 33%

    20 November, Dienstag

    Zeit Temperatur Niederschläge Wind Luftdruck Luftfeuchtigkeit
    00:00 +30°C° 0.3 mm 5 m/S 675 mmHg 37%
    01:00 +29°C° 0.3 mm 4 m/S 674 mmHg 41%
    02:00 +28°C° 0.3 mm 3 m/S 674 mmHg 44%
    03:00 +27°C° 0.2 mm 4 m/S 674 mmHg 48%
    04:00 +26°C° 0.2 mm 4 m/S 675 mmHg 53%
    05:00 +26°C° 0.2 mm 5 m/S 675 mmHg 57%
    06:00 +26°C° 0 mm 6 m/S 675 mmHg 56%
    07:00 +27°C° 0 mm 6 m/S 676 mmHg 55%
    08:00 +27°C° 0 mm 6 m/S 676 mmHg 54%
    09:00 +29°C° 0 mm 6 m/S 676 mmHg 47%
    10:00 +33°C° 0 mm 6 m/S 676 mmHg 40%
    11:00 +35°C° 0 mm 6 m/S 676 mmHg 33%
    12:00 +37°C° 0 mm 5 m/S 676 mmHg 28%
    13:00 +40°C° 0 mm 5 m/S 675 mmHg 22%
    14:00 +42°C° 0 mm 4 m/S 674 mmHg 17%
    15:00 +41°C° 0 mm 4 m/S 674 mmHg 17%
    16:00 +40°C° 0 mm 4 m/S 673 mmHg 17%
    17:00 +40°C° 0 mm 4 m/S 673 mmHg 17%
    18:00 +37°C° 0.2 mm 4 m/S 673 mmHg 21%
    19:00 +35°C° 0.2 mm 3 m/S 673 mmHg 24%
    20:00 +34°C° 0.2 mm 3 m/S 673 mmHg 27%
    21:00 +33°C° 0 mm 3 m/S 674 mmHg 28%
    22:00 +33°C° 0 mm 3 m/S 674 mmHg 28%
    23:00 +31°C° 0 mm 3 m/S 674 mmHg 29%
    Mehr zeigen